sat.trackr.live / text

‹ back to catalog

ONEWEB-0534

NORAD 55797 · 2023-029B

PAYLOAD ACTIVE UNKNOWN

§ Identity

Operator
Country
UK
Launch date
2023-03-09
Launch site
AFETR
Launch vehicle
Mass (kg)
RCS (m²)

Purposes: comms

External: N2YO · Heavens-Above · Gunter

§ Orbital elements

Epoch: 2026-05-25T02:58:18.592320Z

Period
109.03 min
Inclination
87.9166°
Eccentricity
0.0001829
Mean motion
13.20770088 rev/d
Perigee alt
1,180.4 km
Apogee alt
1,183.2 km
Semi-major
7,559.9 km
B*
1.1658e-4
RAAN
279.0698°
Arg perigee
95.7661°
Mean anomaly
264.3681°
Rev number
15,810

§ Raw data

ONEWEB-05341 55797U 23029B   26145.12382630  .00000060  00000+0  11658-3 0  99912 55797  87.9166 279.0698 0001829  95.7661 264.3681 13.20770088158108

JSON: /api/v1/satellites/55797 · /tle

For live sub-satellite position, see the globe view (requires WebGL).

§ Visibility from observer

Set your observer location to see the next 7 days of passes ≥ 10°. The values pass through the URL so the page stays shareable.

No JS? Fill the form by hand. The geolocation button needs JavaScript.